Regional Weather Roundup
Issued by NWS

Home | Current Version | Previous Version | Text Only | Print | Product List | Glossary Off
Versions: 1 2 3 4 5 6 7 8 9 10 11 12 13 14 15 16 17 18 19 20 21 22 23 24 25 26 27 28 29 30 31 32 33 34 35 36 37 38 39 40 41 42 43 44 45 46 47 48 49 50

000
ASUS45 KBOU 041207
RWRCO

WEATHER ROUNDUP FOR COLORADO
NATIONAL WEATHER SERVICE DENVER/BOULDER CO
600 AM MDT FRI SEP 04 2015

NOTE: "FAIR" INDICATES FEW OR NO CLOUDS BELOW 12000 FEET WITH NO
SIGNIFICANT WEATHER AND/OR OBSTRUCTIONS TO VISIBILITY.

COZ001>005-013-030-031-041300-
...NORTHWEST COLORADO...

CITY           SKY/WX    TMP DP  RH WIND       PRES   REMARKS
CRAIG          CLEAR     54  44  69 CALM      30.07R
HAYDEN         CLEAR     50  39  66 E13       30.09S
MEEKER         PTCLDY    49  44  83 NE3       30.08S
MOUNT WERNER   NOT AVBL
STEAMBOAT SPGS CLEAR     42  41  94 CALM      30.14S
WALDEN         CLEAR     37  36  93 S5        30.21S
$$

COZ006>008-011-041300-
...WEST CENTRAL VALLEYS...

CITY           SKY/WX    TMP DP  RH WIND       PRES   REMARKS
GRAND JUNCTION MOCLDY    64  49  57 E14       29.98R
MONTROSE       MOCLDY    58  47  66 S10       30.11R
EAGLE          PTCLDY    45  45 100 CALM      30.21R
RIFLE          PTCLDY    53  49  86 CALM      30.07R
DELTA          RAIN      62  53  74 NE9       30.06S
NUCLA          MOCLDY    59  50  72 SE7       30.12S
$$

COZ017>023-064>068-041300-
...SOUTHWEST COLORADO...

CITY           SKY/WX    TMP DP  RH WIND       PRES   REMARKS
DURANGO        CLOUDY    57  43  59 NW6       30.15S
CORTEZ         CLOUDY    59  45  59 NE5       30.10R
PAGOSA SPRINGS CLOUDY    53  43  68 CALM      30.23R
TELLURIDE      CLOUDY    51  42  69 CALM      30.30S
WOLF CREEK PAS NOT AVBL
$$

COZ009-010-012-014-032>034-037-058>063-041300-
...CENTRAL COLORADO...

CITY           SKY/WX    TMP DP  RH WIND       PRES   REMARKS
ASPEN          PTCLDY    47  41  80 CALM      30.20S
BUENA VISTA    PTCLDY    46  41  82 CALM      30.23R
COPPER MTN     PTCLDY    46  32  57 SW9       30.48S
BERTHOUD PASS  FAIR      36  27  69 NW18G24   30.50S
COTTONWOOD PAS PTCLDY    54  37  54 CALM      30.33S
GUNNISON       PTCLDY    45  41  87 CALM      30.27S
KREMMLING      FOG       41  37  87 CALM      30.25R VSB 1/4
LEADVILLE      PTCLDY    36  35  96 NE3       30.33S
MONARCH PASS   PTCLDY    41  37  87 W16       30.57R
SALIDA         PTCLDY    51  43  75 NW5       30.28R
SUNLIGHT       PTCLDY    46  41  81 S5        30.40S
WILKERSON PASS PTCLDY    43  37  81 W7        30.43S
$$

COZ069>075-041300-
...SAN LUIS VALLEY/SANGRE DE CRISTO MOUNTAINS...

CITY           SKY/WX    TMP DP  RH WIND       PRES   REMARKS
ALAMOSA        MOCLDY    39  38  96 E5        30.21S FOG
LA VETA PASS   PTCLDY    45  37  76 MISG      30.33F
SAGUACHE       PTCLDY    45  43  93 N10       30.24R
$$

COZ035-036-038>040-041300-
...NORTHERN COLORADO FRONT RANGE...

CITY           SKY/WX    TMP DP  RH WIND       PRES   REMARKS
DENVER INTL AP PTCLDY    59  48  67 SW13      29.99S
DMNS CITY PARK   N/A     58  49  72 E7G14     29.99S
AURORA         PTCLDY    57  49  73 S10       30.01S
FRONT RANGE AP CLEAR     55  46  71 S8        30.00S
ERIE MUNI ARPT CLEAR     48  46  93 CALM      29.99S
BOULDER MUN AP CLEAR     54  46  76 SW5       29.98F
CENTENNIAL     MOCLDY    57  47  69 SE5       30.02S
BROOMFIELD     CLEAR     57  45  62 CALM      30.01S
FORT COLLINS   CLEAR     55  48  76 CALM      29.99S
LONGMONT       CLEAR     53  46  77 CALM      29.99F
$$

COZ041-046-047-076>085-087-088-041300-
...PIKES PEAK/PALMER DIVIDE AND SOUTHERN FOOTHILLS...

CITY           SKY/WX    TMP DP  RH WIND       PRES   REMARKS
COLO. SPRINGS  PTCLDY    56  46  69 N6        30.07R
A. F. ACADEMY  PTCLDY    56  44  64 NE5       30.08R
ELLICOTT       CLEAR    N/A N/A N/A CALM      30.06R
FALCON         CLEAR     56  43  60 MISG      30.11S
FORT CARSON    CLEAR     55  47  74 N6        30.03S
LIMON          CLEAR     50  48  93 N3        30.01R
MONUMENT HILL  PTCLDY    55  41  58 SW12      30.11S
TRINIDAD       CLEAR     56  44  64 W9        30.06R
$$

COZ042>045-048>051-090-091-041300-
...NORTHEAST COLORADO...

CITY           SKY/WX    TMP DP  RH WIND       PRES   REMARKS
GREELEY ARPT   CLEAR     48  45  87 MISG      29.98R
AKRON          CLEAR     57  51  80 W13       29.94S
BURLINGTON     PTCLDY    59  52  77 W10       29.92S
WRAY           CLOUDY    58  55  91 W7        29.88R
STERLING       CLEAR     52  52 100 S8        29.91S
HOLYOKE        CLEAR     61  55  82 W9        29.88R
FORT MORGAN    CLEAR     51  48  91 W10       29.95F
$$

COZ086-089-092>099-041300-
...SOUTHEAST COLORADO...

CITY           SKY/WX    TMP DP  RH WIND       PRES   REMARKS
PUEBLO         PTCLDY    56  50  80 W5        29.97S
LA JUNTA       CLEAR     64  51  62 W8        29.95R
LAMAR          CLEAR     57  53  86 S9        29.91R
SPRINGFIELD      N/A     56  49  77 W7        29.97R
$$




USA.gov is the U.S. government's official web portal to all federal, state and local government web resources and services.